Regional Weather Roundup
Issued by NWS

Home | Current Version | Previous Version | Graphics & Text | Print | Product List | Glossary On
Versions: 1 2 3 4 5 6 7 8 9 10 11 12 13 14 15 16 17 18 19 20 21 22 23 24 25 26 27 28 29 30 31 32 33 34 35 36 37 38 39 40 41 42 43 44 45 46 47 48 49 50
000
ASUS45 KBOI 200010
RWRID
WEATHER ROUNDUP FOR IDAHO
NATIONAL WEATHER SERVICE BOISE ID
500 PM MST FRI DEC 19 2014

NOTE: "FAIR" INDICATES FEW OR NO CLOUDS BELOW 12000 FEET
WITH NO SIGNIFICANT WEATHER AND/OR OBSTRUCTIONS TO VISIBILITY

IDZ012-014-200100-
SOUTHWEST IDAHO


CITY           SKY/WX    TMP DP  RH WIND       PRES   REMARKS
BOISE          LGT RAIN  42  38  85 CALM      30.05S FOG
CALDWELL       CLOUDY    43  34  70 E13       30.06F
MOUNTAIN HOME  CLOUDY    38  36  92 E13       30.06S WCI  30
$$

IDZ016-017-200100-
SOUTHCENTRAL IDAHO


CITY           SKY/WX    TMP DP  RH WIND       PRES   REMARKS
BURLEY         LGT RAIN  37  34  89 W8        30.08R WCI  31
JEROME         LGT RAIN  36  34  92 S7        30.08S FOG     WCI  30
TWIN FALLS     LGT RAIN  39  34  82 S13       30.07F WCI  31
$$

IDZ019>023-200100-
SOUTHEAST IDAHO


CITY           SKY/WX    TMP DP  RH WIND       PRES   REMARKS
IDAHO FALLS    CLOUDY    38  30  73 S12       30.06S WCI  30
POCATELLO      LGT RAIN  36  33  89 S14       30.08S WCI  27
REXBURG        CLOUDY    36  31  82 S3        30.05F
$$

IDZ006-010-011-018-031-032-200100-
CENTRAL IDAHO MOUNTAINS


CITY           SKY/WX    TMP DP  RH WIND       PRES   REMARKS
MCCALL         CLOUDY    33  31  92 S8        29.98R WCI  26
HAILEY         LGT SNOW  32  32 100 E6        30.06R VSB 1   WCI  26
STANLEY          N/A     32  28  85 CALM      30.00R
SALMON         CLOUDY    34  28  80 N3        29.98R
CHALLIS        CLOUDY    32  28  85 CALM      29.97S
$$

IDZ002-004-006-007-026-200100-
NORTHERN IDAHO


CITY           SKY/WX    TMP DP  RH WIND       PRES   REMARKS
LEWISTON       MOCLDY    42  42 100 CALM      30.01R
LOWELL           N/A     40  38  93 CALM      30.06R
COEUR D`ALENE  CLOUDY    39  36  87 S9        29.94R WCI  33
MULLAN PASS    LGT SNOW  29  26  89 VRB6      29.87S FOG     WCI  23
$$



USA.gov is the U.S. government's official web portal to all federal, state and local government web resources and services.